Regional Weather Roundup
Issued by NWS

Home | Current Version | Previous Version | Graphics & Text | Print | Product List | Glossary On
Versions: 1 2 3 4 5 6 7 8 9 10 11 12 13 14 15 16 17 18 19 20 21 22 23 24 25 26 27 28 29 30 31 32 33 34 35 36 37 38 39 40 41 42 43 44 45 46 47 48 49 50
000
ASUS43 KMPX 010801
RWRMN
WEATHER ROUNDUP FOR MINNESOTA
NATIONAL WEATHER SERVICE TWIN CITIES/CHANHASSEN MN
300 AM CDT WED OCT 01 2014


NOTE: "FAIR" INDICATES FEW OR NO CLOUDS BELOW 12,000 FEET WITH NO
SIGNIFICANT WEATHER AND/OR OBSTRUCTIONS TO VISIBILITY. N/A MEANS
CURRENT SKY AND/OR WEATHER CONDITIONS ARE NOT AVAILABLE.

MNZ060>063-068>070-010900-
   Twin Cities Metro

CITY           SKY/WX    TMP DP  RH WIND       PRES   REMARKS
TWIN CITIES    MOCLDY    51  44  77 SE14      29.86F
ST PAUL        CLOUDY    51  45  79 SE12      29.88F
CRYSTAL        CLOUDY    53  45  74 SE13G21   29.84F
BLAINE         CLOUDY    54  46  76 SE9G16    29.85F
LAKEVILLE      MOCLDY    50  45  81 SE12      29.86S
EDEN PRAIRIE   PTCLDY    52  46  80 SE15      29.83F
SOUTH ST PAUL  CLOUDY    51  44  77 SE10G16   29.87F
LAKE ELMO      CLOUDY    50  45  81 SE8       29.89F
$$
MNZ001>005-007-008-013>017-022>024-027-028-010900-
   Northwest Minnesota

CITY           SKY/WX    TMP DP  RH WIND       PRES   REMARKS
BEMIDJI        CLOUDY    49  46  86 SE14G21   29.72S
HALLOCK        CLOUDY    61  52  72 SE22G28   29.50F
ROSEAU         CLOUDY    55  48  76 SE21G30   29.62F
WARROAD        CLOUDY    52  46  82 SE13G24   29.64F
THIEF RVR FALL CLOUDY    59  50  72 SE20G29   29.57F
CROOKSTON      CLOUDY    61  54  77 S28G36    29.56F
FOSSTON        CLOUDY    54  48  82 SE16G24   29.63F
DETROIT LAKES  CLOUDY    55  52  88 S17G23    29.67F
PARK RAPIDS    CLOUDY    52  47  83 SE22      29.73F
MAHNOMEN       CLOUDY    56  50  80 S20G30    29.63F
$$
MNZ006-009>011-018-025>026-010900-
   North Central Minnesota

CITY           SKY/WX    TMP DP  RH WIND       PRES   REMARKS
BAUDETTE       MOCLDY    48  42  80 SE9       29.70F
FLAG ISLAND    CLOUDY    52  46  82 SE18      29.68F
INTL FALLS     CLOUDY    47  42  83 SE10      29.79F
WASKISH        PTCLDY    48  45  87 SE15      29.71F
BIG FORK       MOCLDY    50  43  76 SE8       29.79F
LONGVILLE      MOCLDY    48  45  87 SE8       29.78S
GRAND RAPIDS   MOCLDY    46  41  81 SE13      29.80F
CRANE LAKE     CLOUDY    45  43  93 CALM      29.84F
ORR            CLOUDY    46  41  81 SE6       29.79F
COOK           CLOUDY    46  43  87 SE6       29.85S
WALKER         CLOUDY    49  45  85 SE8       29.75F
$$
MNZ012-019>021-037-010900-
   Northeast Minnesota

CITY           SKY/WX    TMP DP  RH WIND       PRES   REMARKS
DULUTH         CLOUDY    49  45  86 SE14      29.88F
ELY            MOCLDY    45  43  93 SE9       29.86F
HIBBING        MOCLDY    48  43  82 SE8       29.85S
EVELETH        CLOUDY    46  43  87 SE7       29.88S
DULUTH HARBOR  CLOUDY    50  46  87 E10       29.92F
TWO HARBORS    CLOUDY    48  43  81 E9        29.90F
SILVER BAY     CLOUDY    45  45 100 NE7       29.91F
GRAND MARAIS     N/A     47  43  86 NE8       29.96F
G MARAIS ARPRT FOG       41  37  87 E7        29.94F VSB 1/4
$$
MNZ029>031-032-039>041-046>048-054>057-064-010900-
   West Central Minnesota

CITY           SKY/WX    TMP DP  RH WIND       PRES   REMARKS
FERGUS FALLS   MOCLDY    61  55  82 S18G26    29.67F
WHEATON        PTCLDY    55  54  94 SE12      29.68S
MORRIS         CLEAR     61  57  88 SE17      29.68F
ALEXANDRIA     CLOUDY    57  55  93 S20       29.75F FOG
ELBOW LAKE     CLOUDY    58  56  92 S16G22    29.69S
WADENA         CLOUDY    52  48  87 SE13      29.72F
GLENWOOD       CLOUDY    57  55  94 SE16G23   29.76F FOG
APPLETON       CLOUDY    63  57  82 SE9       29.70F
BENSON         CLOUDY    57  55  94 S12       29.73S
ORTONVILLE     PTCLDY    61  55  82 SE6       29.69R
MADISON        CLEAR     66  61  82 S13       29.71R
WILLMAR        CLOUDY    57  54  88 SE10G21   29.78S
$$
MNZ033>034-036-042>043-049>051-058-059-010900-
   Central Minnesota

CITY           SKY/WX    TMP DP  RH WIND       PRES   REMARKS
ST CLOUD       CLEAR     53  47  79 SE10      29.81S
SAUK CENTRE    CLOUDY    53  50  88 SE9       29.78S
PAYNESVILLE    MOCLDY    52  49  90 E12G20    29.79S
AITKIN         MOCLDY    52  45  76 SE12      29.80S
PINE RIVER     CLOUDY    52  46  82 SE14      29.82S
BRAINERD       MOCLDY    49  45  86 SE9       29.80F
STAPLES        CLOUDY    50  45  81 SE9       29.77S
LONG PRAIRIE   CLOUDY    52  48  87 SE12      29.78S
LITTLE FALLS   PTCLDY    48  45  87 SE10      29.79F
LITCHFIELD     MOCLDY    55  52  88 SE10      29.80F
BUFFALO        PTCLDY    52  46  80 SE10      29.83F
MAPLE LAKE     CLEAR     53  49  86 SE7       29.83S
$$
MNZ037-044-045-052-053-010900-
   East Central Minnesota

CITY           SKY/WX    TMP DP  RH WIND       PRES   REMARKS
PRINCETON      PTCLDY    52  46  82 E8        29.84F
MORA           CLOUDY    48  43  81 SE8       29.87F
CAMBRIDGE      MOCLDY    54  43  66 SE8       29.83F
RUSH CITY      MOCLDY    48  43  84 SE7       29.88S
MOOSE LAKE     PTCLDY    46  43  87 SE3       29.85F
HINCKLEY       CLOUDY    50  45  81 SE7       29.88S
CLOQUET        CLOUDY    46  45  93 SE9       29.87F
MCGREGOR       MOCLDY    46  43  87 SE9       29.84F
$$
MNZ071>073-080-081-089-090-097-098-010900-
   Southwest Minnesota

CITY           SKY/WX    TMP DP  RH WIND       PRES   REMARKS
MONTEVIDEO     CLOUDY    61  57  88 S8        29.73F
GRANITE FALLS  CLOUDY    59  57  92 SE12      29.75F
CANBY          CLOUDY    63  58  86 S8        29.72R
MARSHALL       CLOUDY    63  55  77 S17G25    29.72F
REDWOOD FALLS  CLOUDY    59  57  93 SE12      29.77S
OLIVIA         CLOUDY    57  54  88 SE12      29.77S
PIPESTONE      CLOUDY    61  59  94 S13G18    29.75S FOG
WINDOM         CLOUDY    61  57  88 SE12      29.79S
WORTHINGTON    CLOUDY    61  57  88 S16       29.78F
JACKSON        CLOUDY    59  55  88 S12       29.80S
TRACY          CLOUDY    62  59  92 S14       29.75F
SLAYTON        CLOUDY    60  59  99 SE12      29.78S FOG
$$
MNZ065>067-074>077-082>085-091>093-010900-
   South Central Minnesota

CITY           SKY/WX    TMP DP  RH WIND       PRES   REMARKS
MANKATO        MOCLDY    54  45  71 SE16      29.81F
NEW ULM        CLOUDY    54  52  94 SE8       29.80S
ST JAMES       CLOUDY    59  55  88 SE8       29.81S
FAIRMONT       MOCLDY    57  52  82 SE13      29.80S
GLENCOE        PTCLDY    54  47  77 SE9       29.81S
FARIBAULT      MOCLDY    52  46  82 SE10      29.86F
OWATONNA       MOCLDY    52  45  76 SE12G21   29.85F
WASECA         MOCLDY    50  43  76 SE12G17   29.84F
ALBERT LEA     CLOUDY    54  46  76 SE16G24   29.85F
$$
MNZ078>079-086>088-094>096-010900-
   Southeast Minnesota

CITY           SKY/WX    TMP DP  RH WIND       PRES   REMARKS
ROCHESTER      CLOUDY    48  44  86 SE16      29.90F
RED WING       CLOUDY    52  45  76 SE18G24   29.88F
STANTON        MOCLDY    51  45  79 SE10G16   29.86S
DODGE CENTER   MOCLDY    48  45  87 SE16      29.88S
WINONA         MOCLDY    48  45  87 SE9       29.94F
AUSTIN         CLOUDY    50  45  81 SE9       29.88F
PRESTON        CLOUDY    47  43  86 SE12      29.92S
$$
ABBREVIATIONS USED IN REMARKS
   TC - TEMPERATURES IN CELSIUS
  WCI - WIND CHILL INDEX
   HX - HEAT INDEX
  VSB - VISIBILITY
$$



USA.gov is the U.S. government's official web portal to all federal, state and local government web resources and services.